Wind_Speed
7 6 6 6 5 5 5 5 5 5 6 6 7 7 7 8 9 9 10 10 10 11 11 12 12 13 13 12 11 10 8 7 7 7 6 6 5 5 6 6 7 8 8
6 6 6 5 5 4 4 5 5 5 5 6 6 7 7 7 8 8 9 9 9 10 10 11 11 11 12 12 11 10 9 7 6 5 5 4 4 4 4 5 6 7 8
5 6 5 5 5 5 5 5 5 5 5 6 6 6 7 7 7 8 8 8 8 9 9 10 10 10 10 11 10 10 9 8 6 5 4 3 3 3 3 4 4 6 7
6 6 6 5 5 5 5 5 5 5 6 6 6 7 7 8 8 8 8 9 9 9 9 9 9 9 9 10 10 10 9 8 7 5 3 2 1 1 2 3 4 5 6
6 6 6 6 6 6 6 6 6 6 6 7 7 8 8 9 10 10 10 10 10 10 10 10 10 10 10 10 10 10 9 8 8 6 4 2 1 1 2 2 3 4 5
7 7 6 6 6 6 7 7 7 8 8 9 9 10 10 11 11 12 12 12 12 12 12 12 12 12 12 11 11 11 10 9 9 7 5 4 2 2 3 3 4 4 5
7 7 7 7 7 8 8 9 9 10 10 11 11 12 13 14 14 14 15 15 15 15 15 14 14 14 14 14 13 12 12 11 10 9 8 6 5 4 3 4 5 5 5
8 7 8 8 9 10 10 11 11 12 13 13 13 14 14 15 16 17 17 17 17 18 17 17 17 16 16 16 16 15 14 13 12 11 10 9 7 6 5 5 6 6 6
9 9 9 10 10 11 12 14 14 15 15 15 16 16 16 17 17 18 18 19 19 19 20 19 19 20 19 19 19 18 17 16 15 14 13 12 11 9 8 7 7 7 8
11 10 11 12 13 14 15 16 16 17 17 17 17 18 18 19 19 19 20 20 21 21 21 22 22 22 22 21 21 20 20 19 18 17 16 15 14 13 12 11 10 9 9
13 13 14 15 16 17 17 17 18 19 19 19 20 20 21 21 22 22 23 23 24 24 24 24 24 24 24 24 24 23 23 23 22 20 19 19 18 17 16 14 14 13 11
15 16 17 18 18 19 20 21 21 21 22 22 23 23 23 24 25 25 26 26 26 25 25 25 25 25 25 25 26 26 26 26 25 24 22 22 21 20 19 18 17 16 15
18 18 19 21 22 23 24 24 24 24 24 25 25 26 26 27 28 28 28 28 29 29 28 27 26 25 25 26 27 28 29 28 28 27 25 24 23 23 22 21 20 19 19
22 22 22 24 25 26 26 26 27 27 27 27 28 29 30 31 31 31 31 31 31 31 30 29 28 28 28 28 27 28 29 30 30 30 28 26 26 25 24 23 22 22 22
25 25 25 25 27 28 28 28 29 30 30 30 31 32 32 33 34 34 34 33 33 32 31 31 30 30 29 28 28 28 29 30 31 32 31 29 27 27 26 25 24 23 22
27 27 28 28 28 29 30 31 32 33 33 34 34 34 35 35 36 36 36 35 34 33 33 33 32 31 30 29 29 28 29 31 32 33 33 31 29 28 27 27 26 25 24
27 28 29 29 30 30 32 33 34 35 35 36 37 37 37 37 37 37 35 35 35 34 35 34 33 33 32 31 30 31 29 29 31 32 33 32 31 30 28 28 28 27 25
26 27 28 29 30 32 33 35 36 37 37 37 38 39 39 39 38 38 36 35 35 36 36 35 34 34 33 32 31 31 30 30 29 31 31 31 32 31 30 29 29 28 27
26 27 29 30 31 33 34 36 37 38 38 39 39 40 40 40 39 38 37 37 37 36 36 36 35 35 34 33 32 31 30 29 29 30 31 31 31 31 31 31 30 29 28
26 28 29 31 32 34 35 36 37 37 38 39 40 40 40 40 40 39 39 39 39 38 38 37 36 36 35 35 33 32 31 30 29 30 31 33 31 32 32 31 31 31 29
25 27 29 30 31 33 34 35 36 37 38 39 39 39 39 39 39 39 39 39 39 38 38 37 37 37 37 35 34 33 32 32 30 30 31 33 32 32 32 33 32 32 32
23 25 27 28 30 32 34 35 36 37 37 38 38 38 38 38 38 38 38 38 39 38 38 38 37 37 37 37 36 34 32 31 30 30 31 32 32 33 33 32 33 33 33
22 24 26 28 30 32 33 35 36 36 37 38 38 37 37 37 37 37 37 37 37 37 37 38 38 37 37 37 36 34 32 31 29 29 30 32 32 33 34 34 34 34 35
21 23 25 27 29 31 32 34 35 35 36 37 37 37 37 37 37 36 36 36 36 36 36 37 37 37 37 37 36 36 34 33 31 30 31 32 33 33 34 34 34 34 34
22 23 26 28 30 31 32 33 34 35 36 36 37 37 37 38 37 36 35 34 34 34 35 35 35 35 35 35 35 36 35 35 33 32 31 32 33 33 35 35 35 35 35
24 26 28 29 31 32 32 33 34 35 36 37 37 38 37 38 38 37 36 35 35 34 34 35 34 34 34 34 34 35 35 35 34 34 33 33 33 33 35 36 37 36 36
Wind_Direction
347 348 342 336 336 337 335 335 339 346 353 358 2 5 6 6 5 6 7 7 8 10 13 14 15 15 15 15 16 17 20 25 35 44 55 67 80 94 109 114 115 116 117
350 351 342 334 330 327 324 323 327 333 342 347 350 351 352 353 353 354 355 357 357 359 2 4 6 7 7 9 10 11 13 16 26 38 51 63 79 96 111 120 121 121 119
347 345 335 327 320 315 313 316 323 330 336 339 341 340 338 338 338 339 340 341 342 345 347 350 352 353 355 357 359 2 5 7 9 20 35 52 71 96 114 127 132 129 126
341 335 326 321 320 316 313 315 321 328 332 333 334 332 329 328 327 326 325 324 325 327 328 330 333 334 337 339 342 346 351 354 357 2 9 27 63 109 133 143 148 142 138
334 325 319 320 320 317 313 311 313 316 321 321 319 319 318 317 317 316 313 311 309 310 311 312 313 314 317 319 322 325 331 335 338 344 341 337 322 193 188 179 171 162 154
322 317 311 313 312 309 306 306 308 309 310 310 309 309 307 307 306 305 303 301 299 297 296 297 298 299 299 300 302 305 309 312 315 320 323 314 297 256 222 207 193 183 175
315 311 306 306 307 305 303 304 305 305 305 305 305 305 303 302 301 299 297 296 294 293 290 286 286 287 287 288 289 289 291 293 295 299 300 296 286 271 249 228 213 201 193
306 301 299 298 300 300 301 301 301 302 303 302 301 302 303 302 301 298 296 293 292 290 288 282 279 279 280 279 279 279 279 280 281 282 283 281 277 268 260 248 231 217 208
298 295 293 294 295 296 298 297 298 299 300 300 300 301 302 303 302 301 299 296 294 291 287 282 276 273 272 272 272 271 271 270 271 273 273 273 272 267 263 256 245 233 223
286 287 291 294 295 296 299 298 297 298 301 301 302 302 302 302 301 300 300 298 294 293 288 282 276 272 268 267 266 266 265 264 264 265 267 268 266 264 262 259 253 244 235
283 286 289 293 296 297 298 299 297 298 301 302 302 302 301 302 301 300 299 298 296 294 293 285 278 271 266 264 262 261 261 260 259 259 260 261 261 260 258 257 255 249 242
278 283 287 289 291 293 294 295 296 297 299 300 299 300 301 301 300 298 297 298 297 295 294 292 284 275 267 263 261 259 257 256 255 254 254 256 257 256 254 252 251 249 245
281 282 285 288 288 289 291 292 293 294 294 296 297 297 297 298 298 297 294 295 295 293 294 293 289 283 275 267 261 259 256 255 253 252 251 251 253 254 254 251 247 246 245
284 284 284 287 287 288 289 291 291 291 290 291 294 295 296 296 296 294 292 291 291 290 290 291 287 285 280 274 267 261 256 255 253 250 249 248 248 250 250 250 247 245 244
287 287 286 285 287 288 289 288 289 290 290 290 290 291 292 293 293 293 293 291 289 286 285 285 285 283 281 279 274 267 259 255 252 249 247 246 244 246 247 246 245 243 242
290 289 289 290 288 288 289 289 290 290 291 290 290 290 290 290 292 293 291 290 288 284 282 281 279 278 279 280 277 274 266 261 256 253 246 243 242 243 244 244 242 241 241
290 291 292 291 291 291 290 290 289 291 291 291 291 291 291 291 291 291 289 287 287 285 282 280 278 277 277 278 277 275 272 267 262 256 247 241 240 240 241 241 240 239 238
288 289 290 291 292 292 293 293 293 293 292 292 291 291 291 291 290 289 288 286 283 283 282 280 279 276 276 276 275 274 271 269 268 259 250 244 239 237 238 238 237 236 236
289 291 292 293 293 294 293 293 294 293 292 292 291 291 291 290 289 287 287 285 283 281 280 279 277 276 276 275 274 273 269 269 267 258 251 245 239 235 235 236 234 232 233
293 294 295 295 295 295 294 294 294 293 292 292 291 290 289 288 287 286 285 284 282 281 279 277 275 274 274 274 272 271 267 268 264 258 252 243 239 235 233 233 230 230 231
296 297 298 298 297 297 296 296 295 294 294 292 291 290 289 287 286 285 284 283 281 279 278 276 274 273 273 272 270 269 266 264 261 257 251 243 239 234 232 231 230 229 228
302 302 302 301 300 299 298 298 297 297 295 294 293 291 289 287 285 284 282 281 279 278 276 275 273 272 271 270 269 267 264 261 260 257 249 241 240 235 232 231 228 228 228
307 306 304 302 301 300 299 299 299 298 297 296 295 293 291 288 286 284 282 280 278 277 275 273 272 270 268 267 266 263 260 258 256 254 248 242 241 237 232 230 229 229 228
310 309 308 306 304 302 301 300 299 299 298 298 297 296 294 291 289 286 284 281 279 277 275 272 271 269 266 265 263 260 259 255 254 251 249 243 239 237 232 228 228 228 227
316 315 313 311 309 307 305 304 302 301 300 299 298 297 295 293 291 289 286 284 281 279 276 273 270 267 264 262 260 258 256 253 250 247 245 242 239 235 231 228 226 227 225
322 320 318 317 315 313 311 308 306 305 303 302 300 299 297 295 293 291 288 286 283 281 277 274 271 267 264 260 258 256 254 251 248 246 243 240 237 235 232 228 225 224 222
Height
5924 5923 5922 5922 5922 5921 5921 5920 5920 5919 5918 5918 5918 5917 5916 5915 5915 5914 5913 5912 5911 5910 5909 5907 5906 5905 5903 5902 5901 5900 5900 5899 5898 5898 5897 5897 5896 5896 5896 5896 5895 5895 5895
5924 5923 5922 5922 5921 5921 5921 5920 5919 5918 5918 5917 5917 5916 5916 5915 5914 5914 5913 5912 5911 5910 5909 5908 5907 5906 5904 5903 5902 5901 5900 5900 5899 5899 5898 5898 5897 5897 5897 5897 5897 5896 5896
5923 5922 5922 5922 5921 5921 5920 5920 5919 5918 5918 5917 5916 5916 5915 5914 5914 5913 5912 5911 5910 5909 5909 5908 5907 5906 5905 5904 5903 5902 5901 5900 5900 5899 5899 5899 5898 5898 5898 5898 5898 5897 5897
5922 5922 5922 5921 5921 5920 5920 5919 5918 5918 5917 5916 5916 5915 5914 5913 5913 5912 5911 5910 5910 5909 5908 5907 5906 5905 5904 5904 5903 5902 5901 5900 5900 5899 5899 5899 5899 5898 5898 5899 5899 5898 5898
5922 5921 5921 5921 5920 5920 5919 5918 5918 5917 5916 5915 5914 5914 5913 5912 5911 5911 5910 5909 5908 5907 5907 5906 5905 5904 5903 5903 5902 5902 5901 5900 5900 5899 5899 5899 5899 5899 5899 5899 5899 5899 5899
5921 5921 5920 5920 5919 5918 5918 5917 5916 5916 5915 5914 5913 5912 5911 5910 5910 5909 5908 5907 5906 5905 5905 5904 5903 5902 5901 5901 5900 5900 5900 5899 5899 5899 5899 5899 5899 5899 5899 5899 5899 5899 5900
5920 5919 5919 5918 5917 5917 5916 5915 5915 5914 5913 5912 5911 5910 5909 5908 5907 5906 5905 5905 5904 5903 5902 5901 5900 5900 5899 5898 5898 5898 5898 5898 5898 5898 5898 5898 5898 5898 5898 5899 5899 5899 5900
5918 5918 5917 5916 5916 5915 5914 5913 5912 5911 5910 5909 5908 5907 5906 5905 5904 5903 5902 5901 5900 5899 5899 5898 5897 5896 5896 5895 5895 5895 5895 5895 5895 5896 5896 5896 5896 5897 5897 5898 5898 5899 5899
5916 5915 5915 5914 5913 5912 5911 5910 5909 5908 5907 5906 5905 5904 5903 5902 5901 5899 5898 5897 5896 5895 5894 5893 5893 5892 5892 5891 5891 5891 5892 5892 5892 5893 5893 5894 5894 5895 5895 5896 5897 5897 5898
5914 5913 5912 5911 5910 5909 5908 5907 5906 5904 5903 5902 5901 5900 5899 5898 5897 5895 5894 5892 5891 5890 5889 5889 5888 5887 5887 5886 5886 5886 5887 5887 5888 5889 5889 5890 5891 5892 5893 5894 5895 5896 5896
5911 5910 5909 5908 5907 5905 5904 5903 5901 5900 5899 5898 5897 5896 5895 5894 5892 5891 5889 5887 5886 5885 5884 5883 5882 5881 5881 5881 5880 5881 5881 5882 5883 5885 5885 5886 5887 5888 5889 5890 5892 5893 5894
5908 5907 5905 5904 5903 5901 5900 5898 5897 5896 5895 5894 5892 5891 5890 5889 5887 5885 5884 5882 5880 5879 5878 5877 5876 5875 5875 5874 5874 5875 5875 5875 5877 5879 5880 5881 5882 5883 5885 5886 5888 5889 5891
5903 5902 5900 5899 5898 5896 5894 5893 5892 5891 5890 5889 5887 5886 5884 5883 5881 5879 5878 5876 5874 5873 5871 5870 5869 5868 5868 5867 5867 5868 5868 5869 5870 5871 5874 5876 5877 5878 5880 5881 5883 5885 5887
5898 5897 5896 5894 5893 5891 5889 5887 5886 5885 5884 5883 5882 5880 5878 5877 5875 5873 5871 5869 5868 5866 5865 5864 5862 5861 5860 5860 5860 5861 5861 5862 5863 5864 5866 5869 5871 5872 5874 5876 5877 5880 5882
5891 5891 5890 5889 5887 5885 5883 5881 5880 5878 5877 5876 5875 5873 5872 5870 5868 5865 5863 5861 5860 5859 5858 5857 5856 5854 5853 5852 5852 5852 5854 5855 5855 5857 5859 5861 5864 5866 5868 5870 5872 5874 5876
5885 5884 5883 5882 5881 5879 5877 5874 5873 5871 5870 5869 5867 5865 5864 5862 5860 5858 5856 5854 5852 5850 5850 5849 5848 5847 5846 5845 5844 5844 5845 5846 5847 5848 5850 5853 5856 5859 5861 5863 5866 5868 5871
5880 5879 5877 5875 5874 5872 5869 5867 5865 5863 5862 5860 5858 5856 5855 5853 5851 5849 5847 5845 5843 5842 5840 5840 5839 5839 5838 5838 5837 5837 5837 5838 5839 5840 5842 5845 5848 5851 5854 5857 5859 5862 5865
5876 5874 5872 5870 5868 5865 5863 5861 5858 5856 5854 5852 5850 5847 5846 5844 5842 5840 5838 5837 5835 5833 5832 5831 5830 5830 5830 5830 5829 5829 5829 5830 5831 5832 5834 5837 5840 5843 5847 5850 5853 5856 5859
5871 5869 5867 5864 5862 5859 5857 5854 5852 5849 5846 5843 5841 5839 5836 5834 5832 5830 5829 5827 5826 5825 5823 5823 5822 5821 5821 5821 5821 5821 5821 5822 5822 5823 5825 5828 5832 5835 5838 5842 5846 5849 5853
5866 5864 5861 5858 5856 5853 5850 5847 5844 5841 5838 5835 5832 5830 5827 5825 5823 5821 5819 5817 5816 5815 5814 5813 5813 5813 5812 5812 5812 5813 5813 5813 5813 5815 5818 5821 5824 5827 5831 5835 5839 5843 5846
5861 5858 5855 5852 5849 5845 5842 5839 5836 5832 5829 5826 5823 5820 5818 5815 5813 5811 5809 5807 5806 5805 5804 5803 5803 5803 5803 5803 5803 5804 5805 5805 5806 5808 5810 5813 5816 5820 5823 5827 5831 5835 5839
5856 5853 5850 5846 5843 5839 5835 5831 5827 5824 5820 5817 5814 5811 5808 5805 5803 5801 5799 5797 5796 5795 5794 5793 5793 5793 5793 5793 5794 5794 5796 5798 5798 5800 5802 5805 5808 5812 5816 5820 5824 5828 5832
5852 5848 5845 5841 5837 5832 5828 5823 5819 5815 5811 5808 5804 5801 5798 5795 5793 5791 5789 5787 5786 5784 5784 5783 5783 5783 5783 5783 5783 5785 5787 5789 5790 5792 5794 5797 5800 5804 5808 5812 5816 5821 5825
5847 5843 5839 5835 5830 5825 5821 5816 5812 5807 5803 5799 5795 5791 5787 5784 5782 5780 5778 5777 5775 5774 5773 5772 5772 5772 5773 5773 5774 5775 5777 5779 5781 5784 5787 5789 5792 5796 5800 5804 5809 5813 5817
5842 5837 5833 5828 5823 5818 5813 5808 5803 5799 5794 5790 5785 5781 5778 5774 5771 5769 5767 5766 5764 5763 5762 5761 5761 5761 5762 5763 5764 5765 5767 5769 5771 5775 5778 5781 5784 5788 5792 5796 5800 5805 5810
5835 5831 5826 5821 5816 5810 5804 5799 5794 5790 5785 5780 5776 5771 5768 5764 5760 5758 5756 5754 5753 5752 5751 5750 5750 5750 5751 5752 5753 5755 5757 5759 5762 5765 5769 5772 5775 5779 5783 5787 5792 5797 5802